Eastover, SC

10:05 AM EST on January 22, 2018 (GMT -0500)
McEntire Angs

Weather History for KMMT - October, 2011

Change the Weather History Date:

Friday, October 21, 2011

  Actual Average Record
Temperature  
Mean Temperature 51 °F -  
Max Temperature 65 °F 71 °F 86 °F (2005)
Min Temperature 37 °F 49 °F 35 °F (2008)
Degree Days  
Heating Degree Days 14    
Growing Degree Days 1 (Base 50)    
Moisture  
Dew Point 40 °F    
Average Humidity 72    
Maximum Humidity 96    
Minimum Humidity 39    
Precipitation  
Precipitation 0.00 in - - ()
Sea Level Pressure  
Sea Level Pressure 30.08 in    
Wind  
Wind Speed 2 mph (West)    
Max Wind Speed 8 mph    
Max Gust Speed -    
Visibility 10 miles    
Events      
Averages and records for this station are not official NWS values.
T = Trace of Precipitation, MM = Missing Value Source: NWS Daily Summary

Daily Weather History Graph

Daily Weather History Graph

Search for Another Location

Airport or City:

Trip Planner

Search our weather history database for the weather conditions in past years. The results will help you decide how hot, cold, wet, or windy it might be!

Date:

Astronomy

Oct. 21, 2011 Rise Set
Actual Time 7:32 AM EDT 6:42 PM EDT
Civil Twilight 7:07 AM EDT 7:07 PM EDT
Nautical Twilight 6:38 AM EDT 7:36 PM EDT
Astronomical Twilight 6:09 AM EDT 8:05 PM EDT
Moon 1:38 AM EDT (10/21) 3:11 PM EDT (10/21)
Length of Visible Light 12h 00m
Length of Day
11h 09m
Waning Crescent, 34% of the Moon is Illuminated
Oct 21
Waning Crescent
Oct 26
New
Nov 2
First Quarter
Nov 10
Full
Nov 18
Last Quarter

Hourly Weather History & Observations

Time (EDT) Temp. Windchill Dew Point Humidity Pressure Visibility Wind Dir Wind Speed Gust Speed Precip Events Conditions
12:55 AM 45.5 °F - 39.4 °F 79% 30.03 in 10.0 mi Calm Calm - N/A   Clear
1:55 AM 43.5 °F 40.9 °F 39.2 °F 85% 30.04 in 10.0 mi SW 4.6 mph - N/A   Clear
2:55 AM 42.1 °F - 38.7 °F 88% 30.04 in 10.0 mi Calm Calm - N/A   Clear
3:55 AM 41.0 °F - 38.1 °F 89% 30.04 in 10.0 mi Calm Calm - N/A   Clear
4:55 AM 40.5 °F - 38.7 °F 93% 30.04 in 10.0 mi Calm Calm - N/A   Clear
5:55 AM 39.6 °F - 37.8 °F 93% 30.06 in 10.0 mi Calm Calm - N/A   Clear
6:55 AM 37.9 °F - 36.5 °F 95% 30.08 in 10.0 mi Calm Calm - N/A   Clear
7:55 AM 38.3 °F - 37.2 °F 96% 30.09 in 9.0 mi Calm Calm - N/A   Clear
8:55 AM 44.4 °F 42.0 °F 41.5 °F 90% 30.11 in 10.0 mi WNW 4.6 mph - N/A   Clear
9:55 AM 50.7 °F - 43.9 °F 77% 30.12 in 10.0 mi Calm Calm - N/A   Clear
10:55 AM 56.5 °F - 43.2 °F 61% 30.13 in 10.0 mi Calm Calm - N/A   Clear
11:55 AM 60.1 °F - 39.4 °F 46% 30.11 in 10.0 mi SW 4.6 mph - N/A   Clear
12:55 PM 62.4 °F - 38.7 °F 41% 30.08 in 10.0 mi West 8.1 mph - N/A   Partly Cloudy
1:55 PM 64.2 °F - 40.5 °F 42% 30.06 in 10.0 mi WNW 6.9 mph - N/A   Partly Cloudy
2:55 PM 65.1 °F - 39.2 °F 39% 30.04 in 10.0 mi West 8.1 mph - N/A   Partly Cloudy
3:55 PM 64.9 °F - 39.2 °F 39% 30.05 in 10.0 mi Calm Calm - N/A   Partly Cloudy
4:55 PM 65.1 °F - 39.9 °F 40% 30.05 in 10.0 mi West 8.1 mph - N/A   Partly Cloudy
5:55 PM 62.1 °F - 38.5 °F 42% 30.06 in 10.0 mi NW 8.1 mph - N/A   Partly Cloudy
6:55 PM 56.7 °F - 41.4 °F 57% 30.08 in 10.0 mi Calm Calm - N/A   Partly Cloudy
7:55 PM 49.5 °F - 43.7 °F 81% 30.09 in 10.0 mi Calm Calm - N/A   Clear
8:55 PM 47.5 °F - 43.9 °F 87% 30.10 in 10.0 mi Calm Calm - N/A   Clear
9:55 PM 45.0 °F - 42.1 °F 90% 30.11 in 10.0 mi Calm Calm - N/A   Clear
10:55 PM 43.9 °F - 41.5 °F 91% 30.11 in 10.0 mi Calm Calm - N/A   Clear
11:55 PM 42.3 °F - 40.6 °F 94% 30.10 in 10.0 mi Calm Calm - N/A   Clear